[[{"header":{"parameterUnit":"m.s-1","parameterCategory":1,"la1":30.2991,"la2":30.254,"lo1":-89.0895,"lo2":-89.0444,"dy":0.0017,"dx":0.0017,"nx":28,"ny":28,"refTime":"2024-05-27T21:00:00:Z","depth":0,"parameterNumber":2,"parameterNumberName":"U-component_of_WINDS"},"data":[0,0,0,0,0,0,0,0,0,0,0,0,0,0,0,0,0,0,0,0,0,0,0,0,0,0,0,0,0,0,0,0,0,0,0,0,0,0,0,0,0,0,0,0,0,0,0,0,0,0,0,0,0,0,0,0,0,0,0.8623,0.8623,0,0.8599,0.8598,0.8598,0.8588,0.8588,0.8588,0.8588,0.8564,0.8563,0.8562,0,0,0,0,0,0,0,0,0,0,0,0,0,0.8663,0.8663,0.8623,0.8623,0.8622,0.8599,0.8598,0.8598,0.8588,0.8588,0.8588,0.8588,0.8564,0.8563,0.8562,0,0,0,0,0,0,0,0,0,0,0,0,0,0.8643,0.8662,0.8623,0.8615,0.8613,0.8599,0.8598,0.8598,0.8588,0.8588,0.8588,0.8588,0.8564,0.8563,0.8562,0.8554,0,0,0.8559,0.8558,0,0,0,0,0,0,0,0,0.8644,0.8642,0.8616,0.8615,0.8614,0.8596,0.8603,0.8583,0.8588,0.8598,0.8588,0.8588,0.8575,0.8573,0.8568,0.8553,0.8552,0.8559,0.8558,0.8558,0.8557,0,0,0,0,0,0,0,0.8646,0.8643,0.8613,0.8616,0.8614,0.8613,0.861,0.86,0.8586,0.8597,0.8596,0.8593,0.8574,0.8569,0.8567,0.8552,0.8559,0.8558,0.8557,0.8557,0.8531,0.8531,0,0,0,0,0,0,0.8648,0.8644,0.8614,0.8613,0.863,0.8612,0.8609,0.8602,0.8586,0.8584,0.8593,0.8593,0.8571,0.8568,0.8566,0.8557,0.8558,0.8557,0.8556,0.8532,0.8531,0.8531,0,0,0,0,0,0,0.8649,0.8646,0.8615,0.8628,0.8624,0.8611,0.8604,0.8601,0.8596,0.8583,0.8581,0.859,0.8571,0.8568,0.8558,0.8556,0.8556,0.8555,0.8532,0.8532,0.8531,0.8539,0,0,0,0,0,0,0.865,0.8646,0.8642,0.8628,0.8623,0.8606,0.8603,0.8601,0.8594,0.8594,0.858,0.8578,0.857,0.8559,0.8557,0.8555,0.8555,0.8532,0.8532,0.8531,0.8538,0.8539,0.8539,0,0,0,0,0,0.8652,0.8645,0.8642,0.8638,0.8618,0.8606,0.8604,0.8595,0.8594,0.8591,0.8583,0.8578,0.8557,0.8558,0.8555,0.8553,0.8532,0.8532,0.8531,0.8538,0.8539,0.8539,0,0,0,0,0,0,0.8659,0.8643,0.8639,0.8628,0.8618,0.8604,0.86,0.8595,0.8586,0.8586,0.8576,0.8573,0.8564,0.8558,0.856,0.8546,0.8544,0.8543,0.855,0.8551,0.8551,0.8553,0.8554,0,0,0,0,0,0.8659,0.865,0.8637,0.8628,0.8623,0.8612,0.8607,0.8601,0.8591,0.8587,0.8578,0.8569,0.8561,0.8555,0.8547,0.8538,0.8535,0.8535,0.8535,0.8536,0.8535,0.8532,0.8532,0.8531,0.8531,0.8531,0,0,0.8659,0.8649,0.8644,0.8629,0.8621,0.8613,0.8609,0.86,0.8594,0.8586,0.8576,0.857,0.8559,0.855,0.8546,0.8544,0.8535,0.8535,0.8536,0.8535,0.8532,0.8532,0.8532,0.8531,0.8531,0.8531,0,0,0.8656,0.8647,0.8639,0.8632,0.862,0.8614,0.8612,0.8599,0.8594,0.8584,0.8579,0.8572,0.8557,0.855,0.8545,0.8541,0.8537,0.8539,0.854,0.8537,0.8537,0.8537,0.8537,0.8537,0.8538,0.8538,0.8538,0,0.8657,0.8644,0.8636,0.8628,0.8622,0.8615,0.8608,0.8601,0.8587,0.8584,0.8582,0.8565,0.8557,0.8547,0.8547,0.8542,0.8541,0.854,0.8538,0.8538,0.8538,0.8538,0.8537,0.8539,0.8539,0.8539,0.8539,0,0.8648,0.8639,0.8635,0.8622,0.8616,0.8608,0.8599,0.8594,0.859,0.8583,0.8575,0.8565,0.8555,0.8553,0.8548,0.8543,0.8542,0.854,0.8538,0.8538,0.8538,0.8538,0.8539,0.8539,0.8539,0.8539,0,0,0.8647,0.8631,0.863,0.8625,0.8613,0.8606,0.8599,0.859,0.8586,0.8577,0.8572,0.8561,0.8559,0.8553,0.8547,0.8544,0.8544,0.8542,0.8542,0.8544,0.8539,0.8542,0.8542,0.8541,0.8541,0.8541,0.8541,0,0.8642,0.8629,0.8622,0.8612,0.8605,0.8599,0.8593,0.8586,0.858,0.8574,0.8568,0.856,0.8558,0.8554,0.8551,0.8545,0.8543,0.8545,0.8537,0.8537,0.854,0.8541,0.8544,0.8543,0.854,0.854,0.854,0,0.8635,0.8627,0.8617,0.8607,0.8604,0.8599,0.8591,0.8584,0.8576,0.8573,0.8567,0.8562,0.8556,0.8555,0.8546,0.8548,0.8544,0.8541,0.8541,0.854,0.8539,0.8541,0.8543,0.8543,0.854,0.854,0.854,0,0.8637,0.8624,0.8616,0.8612,0.86,0.8597,0.8592,0.8584,0.858,0.8573,0.857,0.8563,0.8559,0.8553,0.8547,0.8546,0.854,0.8538,0.8538,0.8538,0.8536,0.8537,0.8538,0.8533,0.8533,0.8533,0.8533,0,0.8633,0.8627,0.8617,0.8612,0.8606,0.8599,0.8593,0.8588,0.8581,0.8577,0.8571,0.8566,0.8558,0.8553,0.8548,0.8543,0.8541,0.8538,0.8537,0.8539,0.854,0.8537,0.8537,0.8533,0.8533,0.8533,0.8533,0,0.8633,0.8626,0.8618,0.8609,0.8606,0.8602,0.8594,0.859,0.8585,0.8579,0.8577,0.8569,0.8563,0.8556,0.8548,0.8544,0.854,0.8538,0.8543,0.8542,0.8542,0.8543,0.8543,0.8543,0.8538,0.8538,0.8538,0,0.8631,0.8627,0.8617,0.8614,0.8609,0.8603,0.8599,0.8592,0.8588,0.858,0.8577,0.8571,0.8565,0.8556,0.855,0.8544,0.8542,0.8542,0.8541,0.8544,0.8543,0.8544,0.8544,0.8543,0.8543,0.8543,0.8543,0,0.8629,0.8626,0.862,0.8614,0.8609,0.8603,0.8597,0.8595,0.8587,0.8583,0.8577,0.8573,0.8565,0.8559,0.8553,0.8548,0.8545,0.8544,0.8543,0.8545,0.8549,0.8548,0.8544,0.8544,0.8544,0.8543,0.8543,0.8543,0.8629,0.8625,0.8619,0.8613,0.8608,0.8603,0.8599,0.8594,0.8589,0.8582,0.8579,0.8573,0.8567,0.8558,0.8554,0.855,0.8549,0.8548,0.8548,0.8548,0.8549,0.8549,0.8549,0.8549,0.8549,0.8549,0.8549,0,0.8627,0.8623,0.8618,0.861,0.8606,0.8603,0.8597,0.8594,0.8589,0.8584,0.8579,0.8573,0.8568,0.8562,0.8556,0.8555,0.8553,0.8553,0.8554,0.8553,0.855,0.8551,0.8555,0.8555,0.8555,0.8555,0.8555,0.8555,0.8626,0.862,0.8617,0.861,0.8606,0.86,0.8597,0.8593,0.8589,0.8583,0.8579,0.8575,0.857,0.8564,0.856,0.8558,0.8557,0.8558,0.8556,0.8554,0.8553,0.8553,0.8554,0.8558,0.8558,0.8559,0.8559,0.8559]},{"header":{"parameterUnit":"m.s-1","parameterCategory":1,"la1":30.2991,"la2":30.254,"lo1":-89.0895,"lo2":-89.0444,"dy":0.0017,"dx":0.0017,"nx":28,"ny":28,"refTime":"2024-05-27T21:00:00:Z","depth":0,"parameterNumber":3,"parameterNumberName":"V-component_of_WINDS"},"data":[0,0,0,0,0,0,0,0,0,0,0,0,0,0,0,0,0,0,0,0,0,0,0,0,0,0,0,0,0,0,0,0,0,0,0,0,0,0,0,0,0,0,0,0,0,0,0,0,0,0,0,0,0,0,0,0,0,0,1.8052,1.8052,0,1.8082,1.8082,1.8083,1.8111,1.8111,1.8112,1.8112,1.814,1.814,1.8141,0,0,0,0,0,0,0,0,0,0,0,0,0,1.8015,1.8016,1.8052,1.8052,1.8053,1.8082,1.8082,1.8083,1.8111,1.8111,1.8112,1.8112,1.814,1.814,1.8141,0,0,0,0,0,0,0,0,0,0,0,0,0,1.8037,1.8016,1.8052,1.807,1.8072,1.8082,1.8082,1.8083,1.8111,1.8111,1.8112,1.8112,1.814,1.814,1.8141,1.8134,0,0,1.8143,1.8143,0,0,0,0,0,0,0,0,1.8036,1.8038,1.8067,1.8069,1.8071,1.8093,1.808,1.81,1.8111,1.8096,1.8112,1.8112,1.8124,1.8126,1.813,1.8136,1.8137,1.8143,1.8143,1.8144,1.8144,0,0,0,0,0,0,0,1.8034,1.8037,1.8064,1.8067,1.807,1.8076,1.808,1.8084,1.8106,1.8097,1.8099,1.8103,1.8125,1.813,1.8131,1.8137,1.8143,1.8144,1.8144,1.8144,1.8138,1.8137,0,0,0,0,0,0,1.803,1.8036,1.8063,1.8065,1.8054,1.8076,1.808,1.8086,1.8107,1.811,1.8102,1.8104,1.8128,1.813,1.8132,1.8125,1.8144,1.8144,1.8145,1.8138,1.8137,1.8137,0,0,0,0,0,0,1.8029,1.8032,1.8062,1.8051,1.8055,1.8076,1.8082,1.8086,1.8091,1.811,1.8114,1.8103,1.8129,1.8131,1.8134,1.8127,1.8144,1.8145,1.8139,1.8138,1.8137,1.8111,0,0,0,0,0,0,1.8028,1.8032,1.803,1.8051,1.8055,1.8063,1.8082,1.8086,1.8092,1.8094,1.8112,1.8115,1.8129,1.8132,1.8134,1.8128,1.8146,1.8139,1.8138,1.8137,1.8113,1.811,1.8107,0,0,0,0,0,1.8027,1.8021,1.803,1.8033,1.8054,1.8063,1.8065,1.8082,1.8091,1.8089,1.8102,1.8115,1.8127,1.8132,1.8135,1.8128,1.814,1.8139,1.8137,1.8114,1.811,1.8107,0,0,0,0,0,0,1.7999,1.8024,1.8034,1.8036,1.8047,1.8068,1.8066,1.8078,1.8086,1.8088,1.8108,1.8112,1.8111,1.812,1.8126,1.8122,1.8135,1.8134,1.8117,1.8113,1.811,1.8108,1.8146,0,0,0,0,0,1.7993,1.7999,1.8021,1.802,1.8025,1.8044,1.8049,1.8061,1.8073,1.8078,1.809,1.8101,1.8107,1.8111,1.8118,1.8114,1.8118,1.8111,1.8108,1.8105,1.8104,1.8102,1.8099,1.8133,1.8133,1.8133,0,0,1.7981,1.7995,1.7998,1.8014,1.8025,1.8029,1.8048,1.8052,1.8056,1.8078,1.8081,1.8091,1.8104,1.8103,1.8103,1.811,1.8096,1.8104,1.8102,1.8102,1.8101,1.8098,1.8095,1.8132,1.8132,1.8132,0,0,1.7961,1.7973,1.7973,1.7983,1.7998,1.8011,1.8011,1.803,1.8037,1.8041,1.8058,1.8061,1.8072,1.808,1.8086,1.8068,1.808,1.807,1.8054,1.8052,1.805,1.8047,1.8041,1.8038,1.8069,1.8069,1.8069,0,1.7943,1.7952,1.7971,1.7975,1.7981,1.8002,1.8002,1.801,1.8027,1.803,1.8038,1.8051,1.8061,1.8062,1.8058,1.8062,1.8062,1.8068,1.8049,1.8047,1.8045,1.8038,1.8036,1.8067,1.8068,1.8068,1.8068,0,1.793,1.7935,1.7933,1.7949,1.7955,1.7957,1.7975,1.7979,1.799,1.8002,1.8005,1.8018,1.8027,1.8028,1.8039,1.8031,1.8035,1.8045,1.8058,1.804,1.8034,1.8032,1.8065,1.8066,1.8066,1.8067,0,0,1.7893,1.792,1.7919,1.7926,1.7944,1.7948,1.795,1.796,1.7963,1.7973,1.7975,1.7983,1.7993,1.7999,1.8011,1.8009,1.7994,1.802,1.8021,1.8014,1.7984,1.7976,1.7973,1.8002,1.8001,1.8001,1.7983,0,1.7876,1.7881,1.7898,1.7898,1.7903,1.7923,1.7924,1.7935,1.7946,1.7951,1.7963,1.7968,1.7981,1.7985,1.7984,1.7996,1.7988,1.7997,1.8002,1.8002,1.7998,1.797,1.7961,1.7943,1.7981,1.7981,1.798,0,1.7856,1.7866,1.7867,1.7884,1.7887,1.7888,1.7898,1.7903,1.7915,1.7923,1.793,1.7944,1.7946,1.7958,1.7961,1.7967,1.797,1.7976,1.7976,1.7976,1.799,1.7969,1.7938,1.7935,1.7977,1.7977,1.7978,0,1.7829,1.7842,1.7844,1.7849,1.787,1.787,1.7879,1.7892,1.7897,1.7905,1.7908,1.7917,1.7921,1.7927,1.7942,1.795,1.7943,1.7957,1.7948,1.7948,1.7946,1.7946,1.7914,1.7948,1.7948,1.7948,1.7948,0,1.7807,1.7806,1.7832,1.7833,1.7832,1.7852,1.785,1.786,1.7872,1.7874,1.7892,1.7894,1.7914,1.7918,1.7929,1.7929,1.7931,1.7937,1.794,1.7935,1.7934,1.7937,1.7939,1.7948,1.7948,1.7948,1.7948,0,1.7776,1.7793,1.7797,1.7816,1.7821,1.782,1.7836,1.7837,1.7849,1.7852,1.7854,1.7872,1.7877,1.7893,1.7903,1.791,1.7907,1.7913,1.7903,1.7905,1.7895,1.7896,1.7864,1.7861,1.7897,1.7897,1.7897,0,1.7761,1.7761,1.7781,1.7784,1.7792,1.7798,1.7803,1.7821,1.7825,1.7839,1.7839,1.7846,1.7852,1.786,1.7873,1.788,1.7887,1.7875,1.7888,1.7883,1.7886,1.7885,1.7885,1.7872,1.7871,1.7871,1.7871,0,1.7732,1.7741,1.7748,1.7758,1.7763,1.7772,1.7781,1.7783,1.7803,1.7807,1.7813,1.7819,1.7828,1.7835,1.7844,1.7852,1.7864,1.7867,1.7865,1.786,1.7854,1.7857,1.7895,1.7867,1.7868,1.7868,1.7868,1.7868,1.7709,1.7709,1.7723,1.773,1.7739,1.7748,1.775,1.7762,1.7768,1.7778,1.7788,1.7793,1.7804,1.7818,1.7825,1.7828,1.7835,1.7833,1.7832,1.7831,1.7829,1.7854,1.783,1.783,1.783,1.783,1.7831,0,1.768,1.769,1.7697,1.7709,1.7715,1.7727,1.7738,1.7741,1.7745,1.7755,1.7762,1.7768,1.7775,1.7789,1.7796,1.7796,1.7802,1.7797,1.7797,1.7799,1.7823,1.7823,1.7792,1.7792,1.7792,1.7792,1.7792,1.7792,1.7666,1.7668,1.7678,1.7684,1.7694,1.7699,1.7704,1.7711,1.772,1.7727,1.7732,1.7741,1.7753,1.7761,1.7767,1.7771,1.7773,1.7766,1.7772,1.7794,1.7797,1.7801,1.7801,1.7766,1.7766,1.7747,1.7747,1.7747]}]]